User: anonymous   Login
Location: Unspecified
(0.0000°N, 0.0000°E)
Time: 09:22:15
(UTC+02:00)
Language:

Ariane H10 - Orbit

View from above orbital plane
View from above orbital plane
View from above satellite
View from above satellite

Ground track
Ground track

The orbit data is extracted from the following two-line orbital elements,

1 19122U 88040B   17267.75746469 -.00000074 +00000-0 +91400-3 0  9995
2 19122 007.1706 131.4260 7126313 216.6193 062.5685 02.33371285199281
Epoch (UTC): 24 September 2017 18:10:44
Eccentricity: 0.7126313
inclination: 7.1706°
perigee height: 521 km
apogee height: 34740 km
right ascension of ascending node: 131.4260°
argument of perigee: 216.6193°
revolutions per day: 2.33371285
mean anomaly at epoch: 62.5685°
orbit number at epoch: 19928

The dashed part of the orbit path shows where the satellite is in the earth's shadow,  

DLR